Weather History for Kimball, NE

Change the Weather History Date:

Saturday, May 4, 2013

  Actual Average (KSNY) Record (KSNY)
Temperature  
Mean Temperature 42 °F 54 °F  
Max Temperature 56 °F 68 °F 86 °F (2012)
Min Temperature 28 °F 40 °F 23 °F (2013)
Degree Days  
Heating Degree Days 23 11  
Month to date heating degree days 47  
Since 1 July heating degree days 5959  
Cooling Degree Days 0 0  
Month to date cooling degree days 0  
Year to date cooling degree days 1  
Moisture  
Dew Point 24 °F    
Average Humidity 52    
Maximum Humidity 82    
Minimum Humidity 25    
Precipitation  
Precipitation 0.00 in 0.11 in 1.26 in (1969)
Month to date precipitation 0.41  
Year to date precipitation 4.08  
Sea Level Pressure  
Sea Level Pressure 30.16 in    
Wind  
Wind Speed 5 mph (ENE)    
Max Wind Speed 16 mph    
Max Gust Speed 23 mph    
Visibility 10 miles    
Events      
T = Trace of Precipitation, MM = Missing Value Source: NWS Daily Summary

Daily Weather History Graph

Daily Weather History Graph

Search for Another Location

Airport:

Trip Planner

Search our weather history database for the weather conditions in past years. The results will help you decide how hot, cold, wet, or windy it might be!

Date:

Astronomy

May. 04, 2013 Rise Set
Actual Time 6:48 AM CDT 8:55 PM CDT
Civil Twilight 6:17 AM CDT 9:25 PM CDT
Nautical Twilight 5:40 AM CDT 10:03 PM CDT
Astronomical Twilight 5:00 AM CDT 10:43 PM CDT
Moon 3:51 AM CDT (5/4) 3:52 PM CDT (5/4)
Length of Visible Light 15h 07m
Length of Day
14h 07m
Waning Crescent, 27% of the Moon is Illuminated
May 4
Waning Crescent
May 9
New
May 17
First Quarter
May 24
Full
May 31
Last Quarter

Hourly Weather History & Observations

Time (CDT) Temp. Windchill Dew Point Humidity Pressure Visibility Wind Dir Wind Speed Gust Speed Precip Events Conditions
12:15 AM 38.8 °F 36.5 °F 30.0 °F 71% 30.13 in 10.0 mi SW 3.5 mph - N/A   Clear
12:35 AM 37.4 °F - 30.4 °F 76% 30.14 in 10.0 mi Calm Calm - N/A   Clear
12:55 AM 36.7 °F - 28.6 °F 72% 30.14 in 10.0 mi Calm Calm - N/A   Clear
1:15 AM 35.4 °F - 29.5 °F 79% 30.13 in 10.0 mi Calm Calm - N/A   Clear
1:35 AM 33.6 °F - 28.0 °F 80% 30.14 in 10.0 mi Calm Calm - N/A   Clear
1:55 AM 33.8 °F 29.6 °F 27.3 °F 77% 30.14 in 10.0 mi East 4.6 mph - N/A   Clear
2:15 AM 34.9 °F 30.8 °F 26.8 °F 72% 30.13 in 10.0 mi ESE 4.6 mph - N/A   Clear
2:35 AM 34.3 °F 30.2 °F 27.0 °F 74% 30.13 in 10.0 mi ESE 4.6 mph - N/A   Clear
2:55 AM 34.2 °F 31.2 °F 27.3 °F 76% 30.13 in 10.0 mi SE 3.5 mph - N/A   Clear
3:15 AM 33.8 °F 30.8 °F 27.3 °F 77% 30.13 in 10.0 mi SSE 3.5 mph - N/A   Clear
3:35 AM 32.9 °F - 27.3 °F 80% 30.13 in 10.0 mi Calm Calm - N/A   Clear
3:55 AM 32.0 °F 28.7 °F 27.1 °F 82% 30.13 in 10.0 mi East 3.5 mph - N/A   Clear
4:15 AM 32.0 °F - 26.6 °F 80% 30.13 in 10.0 mi Calm Calm - N/A   Clear
4:35 AM 30.9 °F 25.2 °F 25.3 °F 80% 30.13 in 10.0 mi East 5.8 mph - N/A   Clear
4:55 AM 30.0 °F 23.2 °F 24.8 °F 81% 30.13 in 10.0 mi East 6.9 mph - N/A   Clear
5:15 AM 31.6 °F 28.3 °F 25.2 °F 77% 30.13 in 10.0 mi ESE 3.5 mph - N/A   Clear
5:35 AM 30.6 °F - 25.0 °F 80% 30.13 in 10.0 mi Calm Calm - N/A   Clear
5:55 AM 30.2 °F 23.4 °F 24.4 °F 79% 30.13 in 10.0 mi East 6.9 mph - N/A   Clear
6:15 AM 28.8 °F 22.6 °F 23.0 °F 79% 30.13 in 10.0 mi ESE 5.8 mph - N/A   Clear
6:35 AM 29.8 °F 24.9 °F 23.5 °F 77% 30.13 in 10.0 mi SE 4.6 mph - N/A   Clear
6:55 AM 31.1 °F - 24.1 °F 75% 30.14 in 10.0 mi Calm Calm - N/A   Clear
7:15 AM 31.1 °F 27.7 °F 23.7 °F 74% 30.14 in 10.0 mi SE 3.5 mph - N/A   Clear
7:35 AM 31.8 °F - 24.8 °F 75% 30.15 in 10.0 mi Calm Calm - N/A   Clear
7:55 AM 32.2 °F - 23.9 °F 72% 30.16 in 10.0 mi Calm Calm - N/A   Clear
8:15 AM 32.5 °F - 25.7 °F 76% 30.16 in 10.0 mi Calm Calm - N/A   Clear
8:35 AM 34.0 °F - 25.7 °F 72% 30.17 in 10.0 mi Calm Calm - N/A   Clear
8:55 AM 36.0 °F 32.1 °F 25.7 °F 66% 30.17 in 10.0 mi ESE 4.6 mph - N/A   Clear
9:15 AM 38.5 °F 34.1 °F 24.4 °F 57% 30.17 in 10.0 mi East 5.8 mph - N/A   Clear
9:35 AM 39.6 °F 34.7 °F 24.3 °F 54% 30.17 in 10.0 mi ENE 6.9 mph - N/A   Clear
9:55 AM 41.7 °F 38.8 °F 22.3 °F 46% 30.17 in 10.0 mi ENE 4.6 mph - N/A   Clear
10:15 AM 44.1 °F 40.8 °F 20.8 °F 40% 30.17 in 10.0 mi East 5.8 mph - N/A   Clear
10:35 AM 46.4 °F 41.9 °F 18.5 °F 33% 30.17 in 10.0 mi ENE 9.2 mph - N/A   Clear
10:55 AM 46.0 °F 41.0 °F 19.4 °F 35% 30.18 in 10.0 mi ENE 10.4 mph 16.1 mph N/A   Clear
11:15 AM 46.6 °F - 21.0 °F 36% 30.18 in 10.0 mi NE 5.8 mph - N/A   Clear
11:35 AM 48.2 °F - 20.7 °F 34% 30.18 in 10.0 mi NE 10.4 mph - N/A   Clear
11:55 AM 49.1 °F - 20.7 °F 33% 30.18 in 10.0 mi NE 5.8 mph - N/A   Clear
12:15 PM 50.0 °F - 21.2 °F 32% 30.18 in 10.0 mi ENE 10.4 mph - N/A   Clear
12:35 PM 49.6 °F - 20.5 °F 32% 30.19 in 10.0 mi ENE 5.8 mph - N/A   Clear
12:55 PM 50.9 °F - 21.0 °F 31% 30.18 in 10.0 mi NE 10.4 mph - N/A   Clear
1:15 PM 52.0 °F - 22.8 °F 32% 30.18 in 10.0 mi North 10.4 mph - N/A   Clear
1:35 PM 52.2 °F - 23.7 °F 33% 30.18 in 10.0 mi NE 10.4 mph - N/A   Clear
1:55 PM 52.2 °F - 23.5 °F 33% 30.17 in 10.0 mi NNE 11.5 mph - N/A   Clear
2:15 PM 52.5 °F - 23.9 °F 33% 30.17 in 10.0 mi North 8.1 mph - N/A   Clear
2:35 PM 54.1 °F - 24.3 °F 31% 30.17 in 10.0 mi North 5.8 mph 18.4 mph N/A   Clear
2:55 PM 54.7 °F - 24.6 °F 31% 30.17 in 10.0 mi NNE 12.7 mph 19.6 mph N/A   Clear
3:15 PM 54.7 °F - 23.5 °F 30% 30.17 in 10.0 mi NNE 15.0 mph 20.7 mph N/A   Clear
3:35 PM 54.5 °F - 23.4 °F 30% 30.16 in 10.0 mi NNE 12.7 mph 19.6 mph N/A   Clear
3:55 PM 54.9 °F - 22.8 °F 29% 30.16 in 10.0 mi NE 16.1 mph 23.0 mph N/A   Clear
4:15 PM 55.4 °F - 21.9 °F 27% 30.16 in 10.0 mi NE 10.4 mph 16.1 mph N/A   Clear
4:35 PM 55.0 °F - 19.8 °F 25% 30.15 in 10.0 mi NNE 11.5 mph 18.4 mph N/A   Clear
4:55 PM 55.4 °F - 20.1 °F 25% 30.15 in 10.0 mi NNE 15.0 mph 19.6 mph N/A   Clear
5:15 PM 55.4 °F - 19.9 °F 25% 30.15 in 10.0 mi ENE 10.4 mph 18.4 mph N/A   Clear
5:35 PM 56.1 °F - 20.7 °F 25% 30.15 in 10.0 mi ENE 11.5 mph 19.6 mph N/A   Clear
5:55 PM 55.4 °F - 19.8 °F 25% 30.15 in 10.0 mi NE 10.4 mph - N/A   Clear
6:15 PM 55.6 °F - 20.5 °F 26% 30.15 in 10.0 mi NNE 12.7 mph 19.6 mph N/A   Clear
6:35 PM 55.0 °F - 19.4 °F 25% 30.16 in 10.0 mi NE 10.4 mph - N/A   Clear
6:55 PM 54.9 °F - 20.1 °F 26% 30.16 in 10.0 mi NE 10.4 mph - N/A   Clear
7:15 PM 54.5 °F - 20.3 °F 26% 30.16 in 10.0 mi ENE 9.2 mph - N/A   Clear
7:35 PM 53.6 °F - 19.8 °F 27% 30.16 in 10.0 mi NE 9.2 mph - N/A   Clear
7:55 PM 52.5 °F - 19.6 °F 27% 30.17 in 10.0 mi NE 10.4 mph - N/A   Clear
8:15 PM 51.1 °F - 20.7 °F 30% 30.17 in 10.0 mi NE 8.1 mph - N/A   Clear
8:35 PM 47.5 °F - 22.8 °F 38% 30.17 in 10.0 mi ENE 6.9 mph - N/A   Clear
8:55 PM 44.1 °F 41.5 °F 23.7 °F 45% 30.19 in 10.0 mi ENE 4.6 mph - N/A   Clear
9:15 PM 41.7 °F 38.0 °F 25.2 °F 52% 30.19 in 10.0 mi ENE 5.8 mph - N/A   Clear
9:35 PM 40.8 °F 36.9 °F 24.6 °F 53% 30.19 in 10.0 mi ENE 5.8 mph - N/A   Clear
9:55 PM 39.9 °F 35.8 °F 24.8 °F 55% 30.20 in 10.0 mi ENE 5.8 mph - N/A   Clear
10:15 PM 38.8 °F 33.8 °F 24.8 °F 57% 30.21 in 10.0 mi ENE 6.9 mph - N/A   Clear
10:35 PM 39.4 °F 33.8 °F 25.2 °F 57% 30.21 in 10.0 mi ENE 8.1 mph - N/A   Clear
10:55 PM 39.0 °F 34.0 °F 24.8 °F 57% 30.21 in 10.0 mi ENE 6.9 mph - N/A   Clear
11:15 PM 37.0 °F 31.6 °F 24.4 °F 60% 30.21 in 10.0 mi ENE 6.9 mph - N/A   Clear
11:35 PM 36.7 °F 30.5 °F 24.6 °F 62% 30.21 in 10.0 mi ENE 8.1 mph - N/A   Clear
11:55 PM 36.3 °F 31.6 °F 23.2 °F 59% 30.22 in 10.0 mi ENE 5.8 mph - N/A   Clear